Time,TemperatureF,DewpointF,PressureIn,WindDirection,WindDirectionDegrees,WindSpeedMPH,WindSpeedGustMPH,Humidity,HourlyPrecipIn,Conditions,Clouds,dailyrainin,SoftwareType,DateUTC
2015-05-05 00:03:00,66.0,47.4,29.23,NNE,22,3.1,3.1,51,0.00,,,0.00,VWS V15.00,2015-05-05 04:03:00,
2015-05-05 00:08:00,65.5,48.4,29.23,North,0,7.4,7.4,54,0.00,,,0.00,VWS V15.00,2015-05-05 04:08:00,
2015-05-05 00:13:00,65.1,48.6,29.23,North,0,7.4,7.4,55,0.00,,,0.00,VWS V15.00,2015-05-05 04:13:00,
2015-05-05 00:18:00,64.6,49.0,29.23,North,0,7.4,7.4,57,0.00,,,0.00,VWS V15.00,2015-05-05 04:18:00,
2015-05-05 00:23:00,64.4,49.3,29.23,ENE,68,3.4,3.4,58,0.00,,,0.00,VWS V15.00,2015-05-05 04:23:00,
2015-05-05 00:28:00,64.4,49.8,29.23,ENE,68,3.4,3.4,59,0.00,,,0.00,VWS V15.00,2015-05-05 04:28:00,
2015-05-05 00:33:00,64.2,50.5,29.23,ENE,68,3.4,3.4,61,0.00,,,0.00,VWS V15.00,2015-05-05 04:33:00,
2015-05-05 00:38:00,64.0,51.2,29.23,ENE,68,3.4,3.4,63,0.00,,,0.00,VWS V15.00,2015-05-05 04:38:00,
2015-05-05 00:43:00,63.9,51.5,29.23,ENE,68,3.4,3.4,64,0.00,,,0.00,VWS V15.00,2015-05-05 04:43:00,
2015-05-05 00:48:00,63.9,51.9,29.23,ENE,68,3.4,3.4,65,0.00,,,0.00,VWS V15.00,2015-05-05 04:48:00,
2015-05-05 00:53:00,63.7,51.7,29.23,ENE,68,3.4,3.4,65,0.00,,,0.00,VWS V15.00,2015-05-05 04:53:00,
2015-05-05 00:58:00,63.5,52.0,29.23,ENE,68,3.4,3.4,66,0.00,,,0.00,VWS V15.00,2015-05-05 04:58:00,
2015-05-05 01:03:00,63.7,52.5,29.23,ENE,68,2.5,2.5,67,0.00,,,0.00,VWS V15.00,2015-05-05 05:03:00,
2015-05-05 01:08:00,63.5,52.4,29.23,NE,45,3.8,3.8,67,0.00,,,0.00,VWS V15.00,2015-05-05 05:08:00,
2015-05-05 01:13:00,63.5,52.8,29.23,NE,45,3.8,3.8,68,0.00,,,0.00,VWS V15.00,2015-05-05 05:13:00,
2015-05-05 01:18:00,63.5,52.8,29.23,NE,45,3.8,3.8,68,0.00,,,0.00,VWS V15.00,2015-05-05 05:18:00,
2015-05-05 01:23:00,63.5,52.8,29.23,NE,45,3.8,3.8,68,0.00,,,0.00,VWS V15.00,2015-05-05 05:23:00,
2015-05-05 01:28:00,63.7,52.9,29.23,NE,45,3.8,3.8,68,0.00,,,0.00,VWS V15.00,2015-05-05 05:28:00,
2015-05-05 01:33:00,63.7,52.9,29.26,NE,45,3.8,3.8,68,0.00,,,0.00,VWS V15.00,2015-05-05 05:33:00,
2015-05-05 01:38:00,63.7,53.7,29.26,NE,45,3.8,3.8,70,0.00,,,0.00,VWS V15.00,2015-05-05 05:38:00,
2015-05-05 01:43:00,63.7,53.7,29.26,NE,45,3.8,3.8,70,0.00,,,0.00,VWS V15.00,2015-05-05 05:43:00,
2015-05-05 01:48:00,63.7,53.7,29.26,NE,45,0.0,0.0,70,0.00,,,0.00,VWS V15.00,2015-05-05 05:48:00,
2015-05-05 01:53:00,63.5,53.5,29.23,NE,45,0.0,0.0,70,0.00,,,0.00,VWS V15.00,2015-05-05 05:53:00,
2015-05-05 01:58:00,63.5,53.5,29.23,NE,45,0.0,0.0,70,0.00,,,0.00,VWS V15.00,2015-05-05 05:58:00,
2015-05-05 02:03:00,63.5,53.5,29.23,NE,45,0.0,0.0,70,0.00,,,0.00,VWS V15.00,2015-05-05 06:03:00,
2015-05-05 02:08:00,63.5,53.5,29.23,NE,45,0.0,0.0,70,0.00,,,0.00,VWS V15.00,2015-05-05 06:08:00,
2015-05-05 02:13:00,63.5,53.9,29.23,NE,45,0.0,0.0,71,0.00,,,0.00,VWS V15.00,2015-05-05 06:13:00,
2015-05-05 02:18:00,63.3,53.4,29.23,NE,45,1.1,1.1,70,0.00,,,0.00,VWS V15.00,2015-05-05 06:18:00,
2015-05-05 02:23:00,63.3,53.8,29.23,NE,45,1.1,1.1,71,0.00,,,0.00,VWS V15.00,2015-05-05 06:23:00,
2015-05-05 02:28:00,63.1,53.6,29.23,NE,45,1.1,1.1,71,0.00,,,0.00,VWS V15.00,2015-05-05 06:28:00,
2015-05-05 02:33:00,63.1,53.6,29.23,NE,45,1.1,1.1,71,0.00,,,0.00,VWS V15.00,2015-05-05 06:33:00,
2015-05-05 02:38:00,63.1,53.6,29.23,NE,45,1.1,1.1,71,0.00,,,0.00,VWS V15.00,2015-05-05 06:38:00,
2015-05-05 02:43:00,63.0,53.4,29.23,NNE,22,2.5,2.5,71,0.00,,,0.00,VWS V15.00,2015-05-05 06:43:00,
2015-05-05 02:48:00,63.0,53.4,29.23,NNE,22,0.0,0.0,71,0.00,,,0.00,VWS V15.00,2015-05-05 06:48:00,
2015-05-05 02:53:00,62.8,53.2,29.23,NNE,22,0.0,0.0,71,0.00,,,0.00,VWS V15.00,2015-05-05 06:53:00,
2015-05-05 02:58:00,62.8,53.2,29.23,East,90,0.0,0.0,71,0.00,,,0.00,VWS V15.00,2015-05-05 06:58:00,
2015-05-05 03:03:00,62.8,53.6,29.20,East,90,0.0,0.0,72,0.00,,,0.00,VWS V15.00,2015-05-05 07:03:00,
2015-05-05 03:08:00,62.8,53.6,29.20,East,90,0.0,0.0,72,0.00,,,0.00,VWS V15.00,2015-05-05 07:08:00,
2015-05-05 03:13:00,62.8,53.6,29.20,East,90,0.0,0.0,72,0.00,,,0.00,VWS V15.00,2015-05-05 07:13:00,
2015-05-05 03:18:00,62.8,53.6,29.23,East,90,0.0,0.0,72,0.00,,,0.00,VWS V15.00,2015-05-05 07:18:00,
2015-05-05 03:23:00,62.8,53.6,29.23,East,90,0.0,0.0,72,0.00,,,0.00,VWS V15.00,2015-05-05 07:23:00,
2015-05-05 03:28:00,62.8,53.6,29.23,East,90,1.3,1.3,72,0.00,,,0.00,VWS V15.00,2015-05-05 07:28:00,
2015-05-05 03:33:00,62.8,53.6,29.20,SSW,202,0.0,0.0,72,0.00,,,0.00,VWS V15.00,2015-05-05 07:33:00,